星链-30354 (STARLINK-30354 )

导读

STARLINK-30354是美国SpaceX星链星座的卫星,于2023年9月4日发射入轨,隶属于星链低轨互联网星座网络,承担全球互联网覆盖服务任务。星链通过批量发射低轨卫星,持续扩容太空通信基础设施,该卫星加入后进一步完善了星链星座的全球覆盖与通信容量,支撑天地一体化互联网络服务。

基本信息
目录编号:
57772
目录名称:
STARLINK-30354
国际标识:
2023-134B
轨道中心:
EARTH
卫星名称:
星链-30354
卫星全名:
星链-30354 (STARLINK-30354 )
卫星状态:
在轨 (已飞行1018 天)
发射日期:
2023-09-04 UTC
国别 :
美国 (US)
星等 :
--
轨道信息
数据来源 国际轨道数据
星历时间: 2026-06-18T05:12:41+0800
16小时前
查看轨道信息
半长轴: 6861.195km
偏心率: 0.0000929
轨道倾角: 43.002°
近地点辐角 269.128°
升交点赤经 351.756°
平近点角 90.947°
近地点: 482.42km
远地点: 483.696km
周期: 94.267分钟
每日圈数: 15.275773
详细信息
固有亮度:
5
最大亮度:
0.3
卫星平台:
Starlink v2.0 mini
覆盖范围:
全球
运营商:
太空探索技术公司
运营商所在国:
美国
制造商(研发单位):
太空探索技术公司
制造商所在国:
美国
使用方式:
暂无
卫星简介
星链(Starlink)计划是由太空探索技术公司(SpaceX)提出的一个巨型低轨卫星互联网星座项目,计划在2019年至2024年间在太空搭建由约1.2万颗卫星组成的“星链”网络,其中1584颗将部署在地球上空550千米处的近地轨道,并从2020年开始工作。该卫星仍在工作。
2D轨道图
3D轨道图
轨道高度分析图
轨道倾角分析图
轨道综合分析图
查看轨道综合分析图